FW2339 Weather Reports


Display with metric or nautical units.
time (UTC)temp
F
wind
direction
speed
MPH
gust
MPH
rain 1hr
in
rain 24hr
in
rain mn
in
humidity
%
barometer
mb
20190922212719 89 165 2.0 6.0 0.00 0.00 0.00 68 1018.8
20190922212219 89 241 3.0 8.0 0.00 0.00 0.00 68 1018.7
20190922211717 89 209 2.0 8.0 0.00 0.00 0.00 68 1018.7
20190922211215 88 231 1.0 8.0 0.00 0.00 0.00 67 1018.7
20190922210716 88 180 2.0 6.0 0.00 0.00 0.00 69 1018.9
20190922210216 88 238 2.0 6.0 0.00 0.00 0.00 69 1018.9
20190922205716 88 240 1.0 5.0 0.00 0.00 0.00 68 1018.9
20190922205218 88 192 1.0 5.0 0.00 0.00 0.00 69 1019.0
20190922204715 88 200 2.0 5.0 0.00 0.00 0.00 69 1019.0
20190922204215 88 192 2.0 5.0 0.00 0.00 0.00 69 1019.1
20190922203715 88 228 1.0 5.0 0.00 0.00 0.00 69 1019.1
20190922203215 88 234 1.0 5.0 0.00 0.00 0.00 69 1019.1
20190922202715 88 207 1.0 5.0 0.00 0.00 0.00 70 1019.3
20190922202216 88 168 1.0 5.0 0.00 0.00 0.00 70 1019.2
20190922201715 88 193 2.0 5.0 0.00 0.00 0.00 70 1019.2
20190922201215 88 171 3.0 8.0 0.00 0.00 0.00 70 1019.3
20190922200717 88 186 3.0 8.0 0.00 0.00 0.00 71 1019.3
20190922200215 88 224 4.0 7.0 0.00 0.00 0.00 68 1019.4
20190922195715 88 196 4.0 9.0 0.00 0.00 0.00 71 1019.5
20190922195213 87 179 3.0 9.0 0.00 0.00 0.00 70 1019.6
20190922194715 87 207 3.0 9.0 0.00 0.00 0.00 71 1019.9
20190922194215 88 244 3.0 7.0 0.00 0.00 0.00 71 1020.0
20190922193712 88 200 3.0 7.0 0.00 0.00 0.00 72 1019.9
20190922193218 88 186 2.0 7.0 0.00 0.00 0.00 72 1019.9
20190922192713 88 190 2.0 7.0 0.00 0.00 0.00 73 1020.0
20190922192214 88 218 2.0 7.0 0.00 0.00 0.00 73 1019.9
20190922191713 88 171 3.0 8.0 0.00 0.00 0.00 74 1020.0
20190922191212 88 211 3.0 8.0 0.00 0.00 0.00 72 1020.1
20190922190712 88 157 3.0 9.0 0.00 0.00 0.00 74 1020.1
20190922190213 88 142 3.0 9.0 0.00 0.00 0.00 74 1020.1
20190922185709 87 136 2.0 9.0 0.00 0.00 0.00 75 1020.1
20190922185208 87 206 3.0 9.0 0.00 0.00 0.00 73 1020.2
20190922184711 87 171 4.0 9.0 0.00 0.00 0.00 75 1020.2
20190922184211 87 227 3.0 9.0 0.00 0.00 0.00 74 1020.2
20190922183709 87 189 4.0 9.0 0.00 0.00 0.00 75 1020.2
20190922183208 87 205 4.0 8.0 0.00 0.00 0.00 76 1020.3
20190922182711 87 174 4.0 8.0 0.00 0.00 0.00 75 1020.3
20190922182211 86 194 5.0 10.0 0.00 0.00 0.00 76 1020.6
20190922181709 86 169 5.0 10.0 0.00 0.00 0.00 75 1020.6
20190922181211 87 169 3.0 9.0 0.00 0.00 0.00 76 1020.7
20190922180709 86 230 3.0 9.0 0.00 0.00 0.00 75 1020.8
20190922180209 86 207 4.0 10.0 0.00 0.00 0.00 78 1021.0
20190922175711 86 248 3.0 10.0 0.00 0.00 0.00 78 1021.0
20190922175211 86 204 3.0 9.0 0.00 0.00 0.00 79 1021.0
20190922174711 85 182 3.0 7.0 0.00 0.00 0.00 79 1021.0
20190922174211 85 85 3.0 7.0 0.00 0.00 0.00 79 1021.1
20190922173709 85 215 3.0 7.0 0.00 0.00 0.00 79 1021.1
20190922173210 85 196 4.0 11.0 0.00 0.00 0.00 79 1021.1
20190922172711 85 161 5.0 11.0 0.00 0.00 0.00 79 1021.3
20190922172210 85 194 5.0 10.0 0.00 0.00 0.00 79 1021.3
20190922171710 84 219 5.0 10.0 0.00 0.00 0.00 79 1021.4
20190922171210 84 233 5.0 12.0 0.00 0.00 0.00 79 1021.5
20190922170709 83 187 5.0 12.0 0.00 0.00 0.00 81 1021.5
20190922170211 84 226 4.0 10.0 0.00 0.00 0.00 80 1021.6
20190922165710 84 225 4.0 10.0 0.00 0.00 0.00 81 1021.6
20190922165209 84 217 5.0 11.0 0.00 0.00 0.00 80 1021.6
20190922164708 84 180 5.0 11.0 0.00 0.00 0.00 79 1021.6
20190922164209 83 246 3.0 10.0 0.00 0.00 0.00 82 1021.6
20190922163707 83 229 4.0 12.0 0.00 0.00 0.00 82 1021.6
20190922163207 83 192 5.0 15.0 0.00 0.00 0.00 83 1021.6
20190922162708 83 222 4.0 15.0 0.00 0.00 0.00 81 1021.7
20190922162206 82 235 3.0 7.0 0.00 0.00 0.00 83 1021.6
20190922161707 82 193 3.0 9.0 0.00 0.00 0.00 84 1021.7
20190922161204 82 193 4.0 10.0 0.00 0.00 0.00 83 1021.7
20190922160703 82 220 4.0 10.0 0.00 0.00 0.00 84 1021.7
20190922160205 82 222 4.0 12.0 0.00 0.00 0.00 85 1021.7
20190922155701 82 205 4.0 12.0 0.00 0.00 0.00 85 1021.8
20190922155202 81 170 3.0 8.0 0.00 0.00 0.00 86 1022.0
20190922154700 81 215 2.0 7.0 0.00 0.00 0.00 86 1021.9
20190922154202 80 202 3.0 10.0 0.00 0.00 0.00 86 1022.0
20190922153700 80 223 4.0 10.0 0.00 0.00 0.00 86 1022.1
20190922153200 80 147 4.0 9.0 0.00 0.00 0.00 85 1022.2
20190922152701 80 221 4.0 9.0 0.00 0.00 0.00 86 1022.2
20190922152203 80 202 4.0 10.0 0.00 0.00 0.00 86 1022.2
20190922151702 80 210 4.0 10.0 0.00 0.00 0.00 87 1022.2
20190922151200 80 150 4.0 8.0 0.00 0.00 0.00 87 1022.2
20190922150701 80 215 3.0 8.0 0.00 0.00 0.00 87 1022.1
20190922150200 80 213 4.0 14.0 0.00 0.00 0.00 88 1022.1
20190922145700 79 219 4.0 14.0 0.00 0.00 0.00 87 1022.1
20190922145159 79 194 3.0 8.0 0.00 0.00 0.00 88 1022.0
20190922144657 78 185 2.0 6.0 0.00 0.00 0.00 88 1022.1
20190922144158 78 181 3.0 6.0 0.00 0.00 0.00 88 1022.1
20190922143659 78 211 3.0 6.0 0.00 0.00 0.00 88 1022.0
20190922143158 78 155 3.0 8.0 0.00 0.00 0.00 88 1021.9
20190922142656 78 221 3.0 8.0 0.00 0.00 0.00 88 1021.9
20190922142156 78 197 3.0 8.0 0.00 0.00 0.00 88 1021.8
20190922141656 78 180 3.0 8.0 0.00 0.00 0.00 88 1022.0
20190922141156 78 162 3.0 7.0 0.00 0.00 0.00 89 1022.0
20190922140658 77 202 3.0 7.0 0.00 0.00 0.00 88 1021.9
20190922140158 77 128 3.0 8.0 0.00 0.00 0.00 88 1022.0
20190922135655 77 187 2.0 8.0 0.00 0.00 0.00 88 1021.9
20190922135154 77 174 2.0 5.0 0.00 0.00 0.00 88 1021.9
20190922134656 77 217 2.0 8.0 0.00 0.00 0.00 88 1022.0
20190922134156 77 171 2.0 8.0 0.00 0.00 0.00 88 1021.9
20190922133654 77 228 2.0 5.0 0.00 0.00 0.00 89 1021.9
20190922133155 76 145 2.0 5.0 0.00 0.00 0.00 89 1021.8
20190922132654 76 190 2.0 5.0 0.00 0.00 0.00 89 1021.9
20190922132155 76 200 1.0 5.0 0.00 0.00 0.00 88 1021.9
20190922131656 76 179 1.0 5.0 0.00 0.00 0.00 88 1021.8
20190922131156 76 166 2.0 10.0 0.00 0.00 0.00 88 1021.9
20190922130656 76 188 2.0 10.0 0.00 0.00 0.00 88 1021.8
20190922130152 76 178 1.0 6.0 0.00 0.00 0.00 88 1021.8
20190922125653 76 174 1.0 6.0 0.00 0.00 0.00 88 1021.7
20190922125152 76 252 1.0 4.0 0.00 0.00 0.00 88 1021.6
20190922124654 76 179 1.0 5.0 0.00 0.00 0.00 88 1021.6
20190922124154 76 194 1.0 5.0 0.00 0.00 0.00 88 1021.7
20190922123653 76 172 1.0 5.0 0.00 0.00 0.00 88 1021.8
20190922123154 76 171 1.0 5.0 0.00 0.00 0.00 88 1021.8
20190922122650 76 168 2.0 5.0 0.00 0.00 0.00 88 1021.7
20190922122150 76 188 2.0 5.0 0.00 0.00 0.00 88 1021.8
20190922121652 76 167 1.0 5.0 0.00 0.00 0.00 88 1021.8
20190922121150 76 175 1.0 4.0 0.00 0.00 0.00 87 1021.7
20190922120651 76 182 0.0 3.0 0.00 0.00 0.00 87 1021.8
20190922120152 76 174 0.0 3.0 0.00 0.00 0.00 87 1021.7
20190922115651 76 167 0.0 3.0 0.00 0.00 0.00 87 1021.7
20190922115148 76 167 0.0 3.0 0.00 0.00 0.00 87 1021.6
20190922114647 76 178 1.0 6.0 0.00 0.00 0.00 87 1021.6
20190922114150 76 178 1.0 6.0 0.00 0.00 0.00 87 1021.6
20190922113648 76 162 1.0 6.0 0.00 0.00 0.00 87 1021.6
20190922113150 76 191 1.0 4.0 0.00 0.00 0.00 87 1021.4
20190922112649 76 195 1.0 4.0 0.00 0.00 0.00 87 1021.4
20190922112148 76 174 1.0 5.0 0.00 0.00 0.00 87 1021.3
20190922111646 76 177 1.0 5.0 0.00 0.00 0.00 87 1021.3
20190922111147 76 201 1.0 5.0 0.00 0.00 0.00 87 1021.3
20190922110646 76 125 1.0 5.0 0.00 0.00 0.00 87 1021.3
20190922110148 76 173 1.0 4.0 0.00 0.00 0.00 87 1021.3
20190922105648 76 178 1.0 5.0 0.00 0.00 0.00 87 1021.2
20190922105148 76 163 1.0 5.0 0.00 0.00 0.00 87 1021.2
20190922104647 76 219 1.0 5.0 0.00 0.00 0.00 87 1021.2
20190922104147 76 210 2.0 5.0 0.00 0.00 0.00 87 1021.2
20190922103645 76 212 2.0 5.0 0.00 0.00 0.00 87 1021.1
20190922103145 76 174 2.0 5.0 0.00 0.00 0.00 86 1021.2
20190922102645 75 159 2.0 5.0 0.00 0.00 0.00 86 1021.2
20190922102147 75 230 1.0 5.0 0.00 0.00 0.00 86 1021.2
20190922101645 75 92 1.0 5.0 0.00 0.00 0.00 86 1021.1
20190922101146 75 180 1.0 5.0 0.00 0.00 0.00 86 1021.2
20190922100646 75 181 1.0 4.0 0.00 0.00 0.00 85 1021.1
20190922100146 75 169 1.0 4.0 0.00 0.00 0.00 86 1021.1
20190922095646 75 186 2.0 5.0 0.00 0.00 0.00 85 1021.0
20190922095146 75 178 2.0 6.0 0.00 0.00 0.00 85 1021.0
20190922094646 75 182 2.0 6.0 0.00 0.00 0.00 85 1021.0
20190922094146 75 184 2.0 4.0 0.00 0.00 0.00 85 1020.8
20190922093647 75 185 1.0 4.0 0.00 0.00 0.00 85 1021.1
20190922093144 75 174 1.0 4.0 0.00 0.00 0.00 85 1021.0
20190922092645 75 183 1.0 5.0 0.00 0.00 0.00 85 1021.1
20190922092145 75 181 1.0 5.0 0.00 0.00 0.00 85 1021.1
20190922091646 75 173 1.0 4.0 0.00 0.00 0.00 84 1021.1
20190922091143 75 167 1.0 4.0 0.00 0.00 0.00 84 1021.1
20190922090645 75 167 1.0 6.0 0.00 0.00 0.00 84 1021.1
20190922090145 75 146 1.0 6.0 0.00 0.00 0.00 84 1021.2
20190922085644 75 176 1.0 3.0 0.00 0.00 0.00 84 1021.1
20190922085146 75 187 1.0 3.0 0.00 0.00 0.00 84 1021.1
20190922084644 75 177 1.0 4.0 0.00 0.00 0.00 84 1021.1
20190922084141 75 178 1.0 4.0 0.00 0.00 0.00 84 1021.1
20190922083645 75 177 1.0 3.0 0.00 0.00 0.00 83 1021.2
20190922083144 75 177 1.0 3.0 0.00 0.00 0.00 83 1021.3
20190922082641 75 177 1.0 4.0 0.00 0.00 0.00 83 1021.2
20190922082140 75 177 1.0 4.0 0.00 0.00 0.00 83 1021.1
20190922081640 75 184 0.0 3.0 0.00 0.00 0.00 83 1021.2
20190922081142 75 184 0.0 0.0 0.00 0.00 0.00 83 1021.2
20190922080639 75 184 0.0 0.0 0.00 0.00 0.00 83 1021.2
20190922080140 76 184 0.0 0.0 0.00 0.00 0.00 83 1021.2
20190922075642 76 184 0.0 1.0 0.00 0.00 0.00 82 1021.2
20190922075140 76 184 0.0 2.0 0.00 0.00 0.00 82 1021.3
20190922074641 76 184 0.0 2.0 0.00 0.00 0.00 82 1021.3
20190922074139 76 184 0.0 3.0 0.00 0.00 0.00 82 1021.2
20190922073639 76 184 0.0 3.0 0.00 0.00 0.00 82 1021.2
20190922073141 76 184 0.0 1.0 0.00 0.00 0.00 82 1021.3
20190922072639 76 184 0.0 2.0 0.00 0.00 0.00 82 1021.2
20190922072141 76 184 0.0 2.0 0.00 0.00 0.00 82 1021.2
20190922071641 76 184 0.0 2.0 0.00 0.00 0.00 82 1021.3
20190922071141 76 184 0.0 1.0 0.00 0.00 0.00 82 1021.3
20190922070639 76 184 0.0 2.0 0.00 0.00 0.00 82 1021.2
20190922070138 77 184 0.0 2.0 0.00 0.00 0.00 81 1021.1
20190922065638 77 184 0.0 2.0 0.00 0.00 0.00 81 1021.0
20190922065136 77 180 0.0 2.0 0.00 0.00 0.00 81 1020.8
20190922064637 77 180 0.0 2.0 0.00 0.00 0.00 81 1020.8
20190922064136 77 180 0.0 1.0 0.00 0.00 0.00 81 1021.1
20190922063637 77 180 0.0 2.0 0.00 0.00 0.00 81 1021.1
20190922063136 77 180 0.0 2.0 0.00 0.00 0.00 81 1021.0
20190922062634 77 180 0.0 2.0 0.00 0.00 0.00 80 1020.8
20190922062137 77 180 0.0 2.0 0.00 0.00 0.00 80 1020.8
20190922061636 77 180 0.0 2.0 0.00 0.00 0.00 80 1021.0
20190922061134 78 178 1.0 4.0 0.00 0.00 0.00 80 1021.0
20190922060635 78 175 0.0 4.0 0.00 0.00 0.00 80 1021.0
20190922060136 78 163 1.0 3.0 0.00 0.00 0.00 80 1021.1
20190922055634 78 169 1.0 4.0 0.00 0.00 0.00 80 1021.1
20190922055136 78 182 2.0 5.0 0.00 0.00 0.00 80 1021.0
20190922054636 78 161 2.0 5.0 0.00 0.00 0.00 80 1021.1
20190922054134 78 167 2.0 5.0 0.00 0.00 0.00 80 1021.0
20190922053634 78 140 3.0 6.0 0.00 0.00 0.00 80 1021.0
20190922053132 78 166 2.0 6.0 0.00 0.00 0.00 79 1021.0
20190922052634 78 164 2.0 5.0 0.00 0.00 0.00 79 1020.8
20190922052134 78 153 3.0 5.0 0.00 0.00 0.00 79 1021.0
20190922051632 78 173 2.0 6.0 0.00 0.00 0.00 79 1021.0
20190922051132 78 159 2.0 6.0 0.00 0.00 0.00 79 1021.1
20190922050635 79 173 3.0 7.0 0.00 0.00 0.00 79 1021.2
20190922050132 79 171 3.0 7.0 0.00 0.00 0.00 79 1021.1
20190922045634 79 159 3.0 7.0 0.00 0.00 0.00 79 1021.1
20190922045131 79 146 3.0 7.0 0.00 0.00 0.00 79 1021.0
20190922044633 79 170 3.0 7.0 0.00 0.00 0.00 79 1021.0
20190922044130 79 140 3.0 8.0 0.00 0.00 0.00 78 1021.0
20190922043631 79 166 3.0 8.0 0.00 0.00 0.00 78 1020.8
20190922043132 79 148 3.0 7.0 0.00 0.00 0.00 78 1021.1
20190922042630 79 158 3.0 7.0 0.00 0.00 0.00 78 1021.1
20190922042132 79 142 4.0 8.0 0.00 0.00 0.00 78 1021.2
20190922041630 79 154 4.0 8.0 0.00 0.00 0.00 78 1021.2
20190922041130 79 149 3.0 7.0 0.00 0.00 0.00 78 1021.3
20190922040633 79 164 3.0 7.0 0.00 0.00 0.00 78 1021.2
20190922040133 79 159 3.0 7.0 0.00 0.00 0.00 78 1021.2
20190922035633 80 163 3.0 6.0 0.00 0.00 0.00 77 1021.2
20190922035132 80 126 3.0 7.0 0.00 0.00 0.00 77 1021.2
20190922034630 80 163 3.0 7.0 0.00 0.00 0.00 77 1021.2
20190922034129 80 155 3.0 8.0 0.00 0.00 0.00 77 1021.1
20190922033628 80 142 3.0 8.0 0.00 0.00 0.00 77 1021.1
20190922033130 80 153 3.0 7.0 0.00 0.00 0.00 77 1021.2
20190922032629 80 142 2.0 6.0 0.00 0.00 0.00 76 1021.2
20190922032128 80 155 3.0 6.0 0.00 0.00 0.00 76 1021.2
20190922031628 80 155 3.0 6.0 0.00 0.00 0.00 76 1021.1
20190922031127 80 132 3.0 8.0 0.00 0.00 0.00 76 1021.1
20190922030628 80 155 4.0 8.0 0.00 0.00 0.00 76 1020.8
20190922030128 80 154 4.0 9.0 0.00 0.00 0.00 76 1021.1
20190922025636 81 149 4.0 9.0 0.00 0.00 0.00 76 1021.1
20190922025630 80 143 4.0 9.0 0.00 0.00 0.00 76 1021.1
20190922023627 81 168 5.0 10.0 0.00 0.00 0.00 76 1021.0
20190922023128 81 140 5.0 10.0 0.00 0.00 0.00 76 1021.0
20190922022626 81 163 5.0 10.0 0.00 0.00 0.00 75 1021.0
20190922022128 81 152 5.0 10.0 0.00 0.00 0.00 75 1020.8
20190922021626 81 135 5.0 9.0 0.00 0.00 0.00 75 1020.8
20190922021125 81 152 4.0 9.0 0.00 0.00 0.00 75 1020.8
20190922020628 81 146 5.0 9.0 0.00 0.00 0.00 75 1020.7
20190922020128 81 142 5.0 9.0 0.00 0.00 0.00 75 1020.7
20190922015629 81 159 4.0 9.0 0.00 0.00 0.00 75 1020.8
20190922015126 81 148 3.0 8.0 0.00 0.00 0.00 75 1020.8
20190922014626 81 123 3.0 8.0 0.00 0.00 0.00 74 1020.7
20190922014125 81 149 4.0 7.0 0.00 0.00 0.00 74 1020.6
20190922013628 81 137 4.0 7.0 0.00 0.00 0.00 74 1020.6
20190922013126 81 141 3.0 5.0 0.00 0.00 0.00 74 1020.6
20190922012628 81 130 3.0 5.0 0.00 0.00 0.00 74 1020.6
20190922012127 81 132 3.0 4.0 0.00 0.00 0.00 74 1020.5
20190922011627 82 132 2.0 4.0 0.00 0.00 0.00 73 1020.4
20190922011127 82 138 2.0 4.0 0.00 0.00 0.00 73 1020.3
20190922010628 82 138 3.0 4.0 0.00 0.00 0.00 73 1020.2
20190922010125 82 138 3.0 4.0 0.00 0.00 0.00 73 1020.1
20190922005625 82 141 2.0 4.0 0.00 0.00 0.00 73 1020.1
20190922005126 83 141 2.0 5.0 0.00 0.00 0.00 72 1020.1
20190922004622 83 141 3.0 5.0 0.00 0.00 0.00 72 1020.1
20190922004122 83 146 3.0 5.0 0.00 0.00 0.00 72 1020.1
20190922003622 83 144 3.0 5.0 0.00 0.00 0.00 72 1020.1
20190922003124 83 140 3.0 5.0 0.00 0.00 0.00 72 1020.0
20190922002621 83 135 4.0 9.0 0.00 0.00 0.00 72 1020.1
20190922002121 84 144 4.0 9.0 0.00 0.00 0.00 72 1020.0
20190922001621 84 140 3.0 6.0 0.00 0.00 0.00 72 1019.8
20190922001120 84 139 3.0 5.0 0.00 0.00 0.00 72 1019.9
20190922000620 84 140 3.0 5.0 0.00 0.00 0.00 71 1020.0
20190922000120 85 135 3.0 4.0 0.00 0.00 0.00 71 1019.9
20190921235622 85 138 3.0 5.0 0.00 0.00 0.00 71 1019.9
20190921235122 85 153 3.0 6.0 0.00 0.00 0.00 71 1020.1
20190921234621 85 161 3.0 8.0 0.00 0.00 0.00 71 1020.0
20190921234120 85 146 3.0 8.0 0.00 0.00 0.00 71 1020.2
20190921233619 86 161 3.0 8.0 0.00 0.00 0.00 71 1020.1
20190921233120 86 157 3.0 7.0 0.00 0.00 0.00 71 1020.1
20190921232620 86 144 4.0 7.0 0.00 0.00 0.00 71 1020.1
20190921232119 86 154 4.0 7.0 0.00 0.00 0.00 71 1020.0
20190921231620 86 147 4.0 7.0 0.00 0.00 0.00 71 1020.0
20190921231119 86 137 4.0 9.0 0.00 0.00 0.00 71 1020.0
20190921230619 86 158 5.0 9.0 0.00 0.00 0.00 71 1020.0
20190921230120 87 149 4.0 9.0 0.00 0.00 0.00 71 1020.1
20190921225619 87 162 4.0 12.0 0.00 0.00 0.00 72 1020.0
20190921225121 87 115 6.0 13.0 0.00 0.00 0.00 72 1020.0
20190921224619 87 150 6.0 13.0 0.00 0.00 0.00 71 1020.1
20190921224121 87 145 4.0 11.0 0.00 0.00 0.00 72 1020.2
20190921223619 87 163 3.0 8.0 0.00 0.00 0.00 73 1020.2
20190921223119 87 188 3.0 9.0 0.00 0.00 0.00 72 1020.2
20190921222617 87 148 4.0 9.0 0.00 0.00 0.00 73 1020.3
20190921222118 87 171 5.0 11.0 0.00 0.00 0.00 72 1020.3
20190921221617 87 145 4.0 11.0 0.00 0.00 0.00 73 1020.3
20190921221118 87 172 4.0 7.0 0.00 0.00 0.00 73 1020.4
20190921220617 87 137 5.0 10.0 0.00 0.00 0.00 73 1020.6
20190921220117 87 152 6.0 12.0 0.00 0.00 0.00 73 1020.8
20190921215619 87 157 6.0 12.0 0.00 0.00 0.00 72 1020.5
20190921215119 87 123 7.0 12.0 0.00 0.00 0.00 73 1020.5
20190921214615 87 165 6.0 12.0 0.00 0.00 0.00 73 1020.5
20190921214117 87 144 3.0 10.0 0.00 0.00 0.00 73 1020.5
20190921213615 87 142 5.0 11.0 0.00 0.00 0.00 74 1020.6
20190921213115 87 138 6.0 15.0 0.00 0.00 0.00 74 1020.6